Powrót do katalogu

DELTA 1 DEB

AktywnySSO
NORAD 10709·DEBRIS·🇺🇸 United States

Wystrzelony Jul 29, 1976 z Vandenberg Space Force Base

Loading…

Następne Przeloty (najbliższe 24 godziny)

TLE

ŚwieżeSource: Space-Track

Epoka: Sep 14, 2026, 10:55 UTC

1 10709U 76077AE  26257.45541630 -.00000166  00000-0 -83563-3 0  9997
2 10709 101.9143 324.8179 0019758 349.7466  21.1756 12.46478460277157

Śledź DELTA 1 DEB w czasie rzeczywistym z AllMySat

Download on the App Store